Ohio State University Airport
KOSU : now visible

Airfield :











YOU CAN JOIN US ON...

 
LOGIN :

Register | Disclaimer

   EN    FR    IT 

 









Legend :    VFR   Marginal VFR   IFR   Intensive IFR   Very Intensive IFR
Visi :
Ceiling :
>= 8 km
>= 3000ft
5 to 8 km
1000 to 3000 ft
1500m to 5 km
500 to 1000 ft
800 to 1500m
200 to 500 ft
< 800m
< 200 ft
Symbols :   Thunderstorms  Fog  Heavy snow  Heavy precipitations  Wind > 20 kt






- Airport Elevation : 905 ft


KOSU - Ohio State University

CURRENT METAR :
  • 230214Z 00000KT 10SM OVC008 10/08 A3002 RMK AO2 CIG 007V012 T01000078

EXPIRED METARs :
  • 230153Z 00000KT 6SM BR OVC010 10/08 A3002 RMK AO2 RAB05E42 CIG 008V013 SLP167 P0000 T01000078
  • 230129Z 00000KT 5SM -RA OVC014 11/08 A3002 RMK AO2 RAB05 P0000 T01060078
  • 230053Z 00000KT 10SM OVC017 11/07 A3002 RMK AO2 SLP168 T01060072
  • 222353Z 00000KT 10SM OVC022 11/08 A3003 RMK AO2 SLP169 T01060078 10122 20106 51002

TAF N/A
KZID FIR / North America



MET'MAP, your aeronautical weather chart ! - Copyright ORBIFLY December 2007 - Disclaimer

ORBIFLY MET'MAP TEAM :

Programming & Development : Alexandra Zaïnal
Concept & original design : Baudouin d'Aumeries
Assistance for programming : Marc-Olivier Méhu
Technical & hardware support : Manuel Goepfert

Contact : metmap@orbifly.com




SOURCES & CREDITS :

   NOAA       Earth
Advisory